Regional Weather Roundup
Issued by NWS Kansas City/Pleasant Hill, MO

Home | Current Version | Previous Version | Graphics & Text | Print | Product List | Glossary Off
Versions: 1 2 3 4 5 6 7 8 9 10 11 12 13 14 15 16 17 18 19 20 21 22 23 24 25 26 27 28 29 30 31 32 33 34 35 36 37 38 39 40 41 42 43 44 45 46 47 48 49 50

283
ASUS43 KEAX 190110
RWREAX

WEATHER ROUNDUP FOR EASTERN KANSAS AND NORTHWEST MISSOURI
NATIONAL WEATHER SERVICE KANSAS CITY/PLEASANT HILL MO
700 PM CST WED JAN 18 2017

KSZ040-057-103>105-MOZ028-029-037-043-190200-
...KANSAS CITY METROPOLITAN AREA...

CITY           SKY/WX    TMP DP  RH WIND       PRES   REMARKS
K.C. INTL      CLEAR     37  32  82 S8        29.99S WCI  31
K.C. DOWNTOWN  CLEAR     42  36  79 CALM      30.01R
LEES SUMMIT    PTCLDY    42  38  85 SE5       30.01R
OLATHE - IXD   CLEAR     41  37  86 SE8       30.00R
OLATHE - OJC   CLEAR     40  39  97 CALM      30.00R
LAWRENCE       CLEAR     37  35  92 E8        29.99F WCI  31

$$

MOZ001>008-011>017-020>025-030>033-038>040-044>046-053-054-190200-
...NORTHERN AND CENTRAL MISSOURI...

CITY           SKY/WX    TMP DP  RH WIND       PRES   REMARKS
ST. JOSEPH     CLEAR     38  36  92 SE3       29.98F
MOSBY          CLEAR     37  36  93 CALM      30.00F
WARRENSBURG    CLOUDY    45  37  76 SE3       30.02R
WHITEMAN AFB   CLOUDY    46  42  88 S3        30.01S
CLINTON        CLOUDY    45  37  76 SE3       30.02S
SEDALIA        CLOUDY    46  38  73 SE6       30.03F
WARSAW         NOT AVBL
CHILLICOTHE      N/A     36  34  92 SE5       30.02F WCI  32
KIRKSVILLE     FOG       34  34 100 CALM      30.03F VSB 3/4

$$

MOZ041-047>049-056>058-063>065-088>090-097-190200-
...EASTERN AND SOUTHERN MISSOURI...

CITY           SKY/WX    TMP DP  RH WIND       PRES   REMARKS
ST. LOUIS INTL CLOUDY    45  35  68 SE7       30.09F
SPIRIT OF STL  CLOUDY    44  37  76 SE3       30.09F
COLUMBIA       CLOUDY    45  35  68 E6        30.04F
JEFFERSON CITY CLOUDY    43  36  76 SE7       30.04F
ROLLA          CLOUDY    45  36  70 SE9       30.03F
OSAGE BEACH    CLOUDY    49  35  58 S6        30.04F
SPRINGFIELD    CLOUDY    45  40  82 SE17      30.02F
BRANSON        CLOUDY    39  39 100 SE6       30.06S FOG     WCI  35
JOPLIN         CLOUDY    50  44  80 S7        30.01F
WEST PLAINS    CLOUDY    42  39  89 E5        30.08F

$$

IAZ060-094-KSZ022-034>040-054-083-096-NEZ052-066-093-190200-
...KANSAS...SOUTHEAST NEBRASKA AND IOWA...

CITY           SKY/WX    TMP DP  RH WIND       PRES   REMARKS
TOPEKA         PTCLDY    42  35  76 SE6       29.97S
MANHATTAN      CLEAR     42  31  64 S6        29.93R
EMPORIA        MOCLDY    43  35  73 SE9       29.95F
CHANUTE        CLOUDY    46  40  79 SE5       29.99F
WICHITA        PTCLDY    45  38  76 S3        29.93S
OMAHA          CLEAR     44  36  73 S12       29.90S
LINCOLN        CLEAR     40  36  86 S6        29.90R
FALLS CITY     CLEAR     38  34  85 SE6       29.95S WCI  33
LAMONI         FOG       35  35 100 S10       29.98F VSB 1/2 WCI  27
DES MOINES     CLEAR     37  33  85 S13       29.98R WCI  29

$$





USA.gov is the U.S. government's official web portal to all federal, state and local government web resources and services.